Flag Weather past 2 weeks in Judenburg, Styria, Austria

Now
37 °F

Partly sunny.


Feels Like: 37 °F
Forecast: 29 / 47 °F
Wind: 1 mph from North

Location: Zeltweg

Current Time: Nov 27, 2014 at 12:10:42 PM

Latest Report: Nov 27, 2014 at 11:20 AM


Visibility: 9 mi

Pressure: 29.98 "Hg

Humidity: 75%

Dew point: 30 °F

Location of JudenburgLocation

Historic Weather in Judenburg — Graph

°F

Judenburg temperature yesterday

Maximum temperature yesterday: 39 °F (at 11:20 AM)
Minimum temperature yesterday: 36 °F (at 7:50 PM)
Average temperature yesterday: 38 °F

Past Weeks' High & Low Weather Summary

 TemperatureHumidityPressure
High59 °F (Nov 15, 12:50 PM)100% (Nov 12, 7:50 PM)30.42 "Hg (Nov 12, 7:50 PM)
Low30 °F (Nov 22, 5:50 AM)51% (Nov 16, 12:50 PM)29.59 "Hg (Nov 16, 4:50 AM)
Average43 °F87%30.01 "Hg
* Reported Nov 12 10:20 AM — Nov 27 10:50 AM, Judenburg, Weather by CustomWeather, © 2014

Note: Actual official high and low records may vary slightly from our data, if they occured in-between our weather recording intervals... More about our weather records

Advertising

Judenburg weather history for previous 24 hours

 ConditionsComfort  
Time TempWeatherWind HumidityBarometerVisibility
10:50 AM
Nov 27
37 °FPartly sunny.2 mph81%29.98 "Hg9 mi
10:20 AM36 °FPartly sunny.2 mph87%29.98 "Hg9 mi
9:50 AM36 °FPartly sunny.3 mph87%29.98 "Hg7 mi
9:20 AM36 °FPartly sunny.3 mph87%29.98 "Hg7 mi
8:50 AM36 °FPartly sunny.3 mph87%29.98 "Hg6 mi
8:20 AM34 °FPartly sunny.5 mph93%29.98 "Hg6 mi
7:50 AM34 °FPartly sunny.5 mph93%29.98 "Hg6 mi
7:20 AM34 °FPassing clouds.2 mph93%29.98 "Hg6 mi
6:50 AM34 °FPassing clouds.3 mph93%29.98 "Hg6 mi
5:50 AM34 °FPassing clouds.3 mph93%29.98 "Hg6 mi
4:50 AM34 °FPassing clouds.5 mph87%30.01 "Hg6 mi
9:50 PM
Nov 26
36 °FPassing clouds.5 mph87%30.07 "Hg6 mi
8:50 PM36 °FPassing clouds.5 mph87%30.07 "Hg6 mi
7:50 PM36 °FPassing clouds.2 mph81%30.07 "Hg6 mi
6:50 PM37 °FPassing clouds.5 mph81%30.07 "Hg6 mi
5:50 PM37 °FPassing clouds.2 mph87%30.07 "Hg9 mi
4:50 PM37 °FPassing clouds.3 mph75%30.07 "Hg9 mi
4:20 PM37 °FPassing clouds.3 mph81%30.07 "Hg9 mi
3:50 PM39 °FPartly sunny.2 mph70%30.07 "Hg9 mi
3:20 PM39 °FPartly sunny.2 mph70%30.07 "Hg9 mi
2:50 PM39 °FPartly sunny.2 mph70%30.07 "Hg9 mi
2:20 PM39 °FPartly sunny.2 mph70%30.09 "Hg9 mi
1:50 PM37 °FPartly sunny.3 mph75%30.09 "Hg9 mi
1:20 PM39 °FPartly sunny.3 mph70%30.09 "Hg9 mi
12:50 PM39 °FPartly sunny.5 mph70%30.09 "Hg9 mi
12:20 PM39 °FScattered showers. Partly sunny.6 mph70%30.12 "Hg9 mi
Weather by CustomWeather, © 2014

See weather overviewHow to use our weather pages